Observations for Trim Market St
| Time | AQI | Temp °C | Hum % | Pres Pa | CO μg/m³ | H₂S μg/m³ | NO μg/m³ | NO₂ μg/m³ | O₃ μg/m³ | SO₂ μg/m³ | PM1 μg/m³ | PM2.5 μg/m³ | PM10 μg/m³ |
|---|---|---|---|---|---|---|---|---|---|---|---|---|---|
| Saturday 11 July 2026 | |||||||||||||
| 14:07 | 1 | 37.9 | 30 | 66,679 | 0 | 0 | 0 | 1.62 | 10.36 | 3.7 | 2.14 | 5.47 | 6.02 |
| 14:06 | 1 | 37.8 | 30 | 66,635 | 0 | 2.02 | 0 | 7.93 | 19.81 | 3.08 | 1.43 | 4.93 | 4.94 |
| 14:05 | 1 | 37.7 | 30 | 66,639 | 0 | 0.81 | 0 | 12.65 | 6.75 | 2.14 | 1.43 | 4.38 | 4.82 |
| 14:04 | 1 | 37.6 | 31 | 66,619 | 0 | 8.03 | 0 | 10.94 | 23.94 | 3.02 | 2.14 | 4.91 | 5.4 |
| 14:03 | 1 | 37.5 | 31 | 66,590 | 0 | 7.99 | 0 | 13.78 | 20.84 | 2.43 | 2.14 | 6 | 8.39 |
| 14:02 | 1 | 37.4 | 31 | 66,584 | 0 | 3.1 | 0 | 6.7 | 13.34 | 2.65 | 0.71 | 4.36 | 4.8 |
| 14:01 | 1 | 37.4 | 31 | 66,582 | 0 | 9 | 0 | 16.2 | 22.73 | 1.69 | 2.14 | 5.45 | 5.99 |
| 14:00 | 1 | 37.3 | 31 | 66,576 | 0 | 12.29 | 0 | 16.12 | 18.45 | 2.48 | 1.43 | 4.91 | 5.4 |
| 13:59 | 1 | 37.2 | 31 | 66,574 | 0 | 15.22 | 0 | 11.95 | 29.48 | 2.85 | 1.43 | 4.91 | 5.4 |
| 13:57 | 1 | 37.2 | 31 | 66,545 | 0 | 26.64 | 0 | 14.36 | 43.85 | 2.93 | 2.85 | 6 | 6.59 |
| 13:50 | 1 | 37.7 | 30 | 66,637 | 0 | 15.01 | 0 | 3.11 | 7.19 | 4.01 | 2.14 | 5.49 | 6.04 |
| 13:49 | 1 | 37.8 | 30 | 66,631 | 0 | 16.38 | 0 | 8.68 | 33.38 | 3.6 | 2.85 | 6.03 | 6.66 |
| 13:48 | 1 | 37.8 | 30 | 66,643 | 0 | 14.05 | 0 | 4.79 | 32.81 | 4.2 | 0.71 | 4.41 | 4.85 |
| 13:41 | 1 | 38.3 | 29 | 66,770 | 0 | 0 | 0 | 0 | 7.44 | 5.66 | 2.85 | 6.08 | 6.69 |
| 13:40 | 1 | 38.4 | 29 | 66,796 | 0 | 0.13 | 0 | 0 | 19.33 | 5.96 | 1.43 | 5 | 5.5 |
| 13:39 | 1 | 38.5 | 29 | 66,815 | 0 | 0.31 | 0 | 2.63 | 24.71 | 5.34 | 1.43 | 4.46 | 4.9 |
| 13:37 | 1 | 38.7 | 28 | 66,823 | 0 | 16.17 | 0 | 6 | 35.47 | 5.64 | 1.43 | 5.01 | 5.51 |
| 13:36 | 1 | 38.8 | 28 | 66,815 | 0 | 9.49 | 0 | 7.69 | 37.97 | 4.65 | 2.14 | 6.11 | 6.65 |
| 13:35 | 1 | 39 | 28 | 66,839 | 0 | 0 | 0 | 0 | 19.17 | 5.18 | 2.14 | 5.02 | 5.53 |
| 13:33 | 1 | 39.3 | 28 | 66,880 | 0 | 0 | 0 | 7.2 | 37.31 | 4.61 | 1.43 | 5.04 | 5.77 |